{"data":{"norad_id":40920,"intl_designator":"2015-050A","name":"COSMOS 2507 (RODNIK-S *)","alt_names":[],"object_type":"PAYLOAD","status":"ACTIVE","operator":null,"country":"CIS","launch_date":"2015-09-23","launch_site_code":"PLMSC","launch_vehicle":null,"mission":null,"orbit_class":"UNKNOWN","rcs_meters":1.5579,"size_class":null,"mass_kg":null,"dimensions":null,"purposes":[],"wikipedia_slug":null,"has_3d_model":false,"image_url":null,"decayed_at":null,"tle_current":{"epoch":"2026-09-20T03:14:36.934944Z","epoch_age_seconds":72774,"freshness":"FRESH","line1":"1 40920U 15050A   26263.13514971  .00000097  00000+0  62697-3 0  9994","line2":"2 40920  82.4964  20.5401 0010599 140.0857 220.1004 12.42929684498659","mean_motion":12.42929684,"eccentricity":0.0010599,"inclination_deg":82.4964,"raan_deg":20.5401,"arg_perigee_deg":140.0857,"mean_anomaly_deg":220.1004,"bstar":0.00062697,"rev_number":49865,"period_min":115.85530690407,"perigee_km":1485.8643931992,"apogee_km":1502.5521907491,"semimajor_km":7872.3452919742,"source":"CELESTRAK","updated_at":"2026-09-20T09:00:14.105088Z"}}}